SCP
0 0 0 0 0 0 -0 0 0 0 0 -0 0 0 0 -0 0 0 0 0 0 0 0 0 0 0 -0 -0 0 0 0 0 0 0 0 -0 -0 -1 -0 0 1 2 2 1
0 0 0 0 0 0 0 0 0 -0 0 0 0 0 0 0 0 0 -0 0 0 0 0 0 -0 -0 -0 0 0 0 -0 -0 -0 -0 -0 -0 -0 -0 1 1 1 2 1 1
0 0 0 0 0 0 0 0 0 0 0 0 0 0 0 0 -0 -0 -0 -0 0 0 0 -0 -0 -0 -0 -0 -0 -0 -0 -0 -0 -0 -0 -1 -1 -0 1 3 1 2 1 0
0 0 0 0 0 0 0 0 0 0 0 0 0 0 0 0 0 -0 -0 -0 -0 0 0 0 0 -0 0 -0 -0 -0 -0 -0 -0 -0 -0 -1 -1 -0 1 2 3 2 1 0
0 0 0 0 0 0 0 0 0 0 0 0 0 0 0 0 0 0 0 -0 -0 -0 0 0 -0 -0 -0 -0 -0 -0 -0 -1 -1 -1 -1 -1 -2 -1 -0 1 2 1 0 0
0 0 0 0 0 0 0 0 0 0 0 0 0 0 0 0 0 0 0 0 0 0 -0 0 -0 0 -0 -0 -0 -0 -1 -1 -1 -1 -2 -2 -2 -2 1 2 1 1 0 0
0 0 0 0 0 0 0 0 0 0 0 0 0 0 0 0 0 0 0 0 0 0 0 0 1 0 -0 -0 -0 -1 -0 -1 -1 -3 -2 -1 -2 -1 0 1 1 0 0 0
0 0 0 0 0 0 0 1 1 1 0 0 0 0 0 0 0 0 0 0 0 0 0 1 2 2 0 0 -1 1 1 -0 -1 -2 -1 -0 -1 -0 1 1 1 0 0 0
0 0 0 0 0 0 0 0 0 0 0 0 0 0 0 0 0 0 0 0 0 0 1 1 1 2 1 -0 1 0 2 1 2 -0 -1 -0 -1 1 1 1 0 0 0 0
0 0 0 0 0 0 0 0 0 0 0 0 0 1 1 0 0 0 0 0 0 0 1 2 2 2 2 2 2 3 2 3 2 1 1 2 2 2 1 0 0 0 0 0
0 0 0 0 0 0 0 0 0 0 0 0 0 0 0 0 2 2 1 1 1 1 2 3 5 4 3 3 3 3 3 3 3 2 2 2 2 2 1 0 0 0 0 0
0 0 0 0 0 0 0 0 0 0 1 1 1 0 0 0 0 1 1 1 2 3 4 4 5 5 5 4 6 5 4 3 3 2 4 3 2 0 0 0 0 0 0 0
0 0 0 0 0 0 0 -0 -0 -0 -0 -0 0 0 0 0 0 0 2 3 2 3 5 4 4 3 4 7 6 6 5 5 5 4 3 2 2 1 0 0 0 0 0 0
0 0 0 0 0 0 0 0 -0 -0 0 2 3 1 0 0 0 0 1 1 1 1 3 2 2 2 3 5 7 7 6 5 6 6 3 2 3 1 1 0 0 0 0 0
0 0 0 0 0 0 0 0 0 0 0 1 1 3 4 1 1 1 1 1 1 1 1 2 3 3 4 4 3 5 5 5 5 4 3 2 2 1 1 0 0 0 0 0
0 0 0 0 0 0 0 0 0 0 0 0 1 1 2 3 2 2 2 2 1 1 2 3 2 4 5 3 4 4 4 4 4 6 3 2 1 1 1 1 1 0 0 0
0 0 0 0 0 0 0 0 0 0 0 0 1 1 1 2 3 3 2 3 3 3 3 2 2 4 3 4 3 4 5 5 4 5 3 3 2 1 1 1 0 0 0 0
0 0 0 0 0 0 0 0 0 0 0 0 0 1 0 1 1 1 2 2 3 2 1 1 2 1 2 3 3 4 4 4 5 5 3 2 1 1 0 0 0 0 0 0
0 0 0 0 0 0 0 0 0 0 0 0 0 0 1 1 1 1 1 1 1 1 1 1 1 1 3 3 3 4 4 4 4 3 2 1 1 1 0 0 0 0 0 0
0 0 0 0 0 0 0 0 0 0 0 0 0 0 0 0 1 1 1 2 2 3 3 2 2 3 3 3 2 3 2 2 2 2 1 1 1 1 0 0 0 0 0 0
0 0 0 0 0 0 0 0 0 0 0 0 0 0 1 0 0 0 0 1 0 0 1 1 3 4 4 3 3 2 1 1 2 2 1 1 1 0 0 0 0 0 0 0
0 0 0 0 0 0 0 0 0 0 0 0 0 0 0 0 0 0 0 0 0 0 0 1 2 0 1 1 4 4 5 6 4 3 2 2 1 0 0 0 0 0 0 0
0 0 0 0 0 0 0 0 0 0 0 0 0 0 0 0 0 0 0 0 0 0 0 0 0 0 0 0 1 1 1 0 1 2 2 1 1 0 0 0 0 0 0 0
0 0 0 0 0 0 0 0 0 0 0 0 0 0 0 0 0 0 0 0 0 0 0 0 0 0 0 0 0 0 0 0 0 0 0 0 0 0 0 0 0 0 0 0
0 0 0 0 0 0 0 0 0 0 0 0 0 0 0 0 0 0 0 0 0 0 0 0 0 0 0 0 0 0 0 0 0 0 0 0 0 0 0 0 0 0 0 0
-0 -0 -0 0 0 0 0 0 0 0 0 0 0 0 0 0 0 0 0 0 0 0 0 0 0 0 0 0 0 0 0 0 0 0 0 0 0 0 0 0 0 0 0 0
0 -0 -0 -0 -0 -0 -0 -0 0 0 0 0 0 0 0 0 0 0 0 0 0 0 0 0 0 0 0 0 0 0 0 0 0 0 0 0 0 -0 0 0 0 0 0 0
Wind_Speed_500mb
56 50 49 53 60 56 60 51 50 40 48 62 27 24 32 45 49 54 55 61 62 63 64 65 66 65 66 64 62 61 65 63 63 62 55 53 50 46 41 35 32 37 35 28
49 52 47 51 60 63 57 59 54 47 45 46 25 30 33 42 49 54 57 60 61 62 64 68 71 73 72 74 72 70 71 70 66 64 60 58 52 49 42 35 30 39 43 30
44 48 53 43 57 61 57 56 54 51 34 50 54 28 37 34 45 52 57 59 63 69 72 75 77 80 77 77 74 74 75 73 72 69 66 60 56 52 41 51 22 66 50 35
32 40 57 25 37 42 54 53 54 47 45 41 25 32 28 39 45 48 52 57 60 63 68 76 69 69 70 69 76 77 78 78 78 73 68 64 59 56 53 57 59 57 53 39
25 37 29 41 40 38 47 53 52 50 51 36 53 28 32 34 36 49 52 53 58 60 65 62 69 73 77 76 77 82 84 87 87 78 76 68 65 61 61 63 66 60 52 43
19 34 56 36 43 33 33 35 43 51 47 48 43 32 25 43 30 29 27 44 54 57 56 59 72 74 79 86 84 87 90 96 87 82 77 74 70 66 69 66 57 55 55 53
24 19 25 34 37 51 37 18 22 39 34 41 32 32 42 34 30 40 39 37 40 49 55 70 74 80 87 91 96 94 91 91 85 85 83 78 72 64 70 64 54 56 56 53
28 24 30 23 11 3 15 20 25 25 12 44 45 50 45 43 46 30 40 35 36 45 55 64 68 80 91 101 102 94 89 86 88 86 81 62 68 74 70 65 66 60 59 59
29 27 16 29 27 31 29 28 26 27 23 24 21 46 59 59 49 51 38 33 36 41 49 54 68 84 91 103 99 92 92 88 87 85 76 65 74 78 71 72 64 62 64 61
19 38 25 19 24 32 36 34 32 32 36 29 27 28 33 35 58 59 56 53 47 46 48 56 56 62 70 78 83 90 92 89 84 78 68 74 81 74 65 73 61 61 62 61
20 30 22 20 26 37 40 38 41 41 37 34 36 40 40 43 47 49 54 57 55 53 65 68 65 62 62 78 83 96 91 84 78 61 64 80 80 72 60 62 64 63 60 58
10 24 21 25 33 36 40 41 42 48 48 40 39 45 43 46 46 49 56 54 54 55 59 68 68 67 66 70 86 87 84 80 71 65 75 78 64 65 64 49 56 54 55 48
24 26 26 23 28 28 34 37 45 40 41 46 45 46 47 48 44 45 39 30 42 55 60 56 60 63 63 72 81 81 79 72 69 66 65 75 66 59 77 64 59 68 60 54
16 26 21 26 32 29 29 34 41 42 39 40 37 33 40 44 42 43 42 40 37 42 45 43 47 49 53 63 69 72 68 71 74 69 68 72 66 61 57 73 71 73 67 65
16 25 28 23 25 31 33 39 47 56 55 43 35 32 30 32 34 35 30 29 29 31 36 41 46 47 53 56 63 65 65 66 66 61 60 66 59 57 54 55 56 71 76 68
32 25 25 28 44 46 32 36 38 49 61 63 44 33 29 25 22 21 20 20 24 29 32 39 42 45 49 53 59 62 66 67 67 65 60 59 56 56 56 58 59 60 61 70
32 22 30 32 42 53 33 38 40 42 58 66 54 35 24 17 13 12 14 13 16 23 30 34 39 42 44 52 58 60 65 74 71 70 61 59 56 58 58 60 63 67 54 58
29 31 30 31 39 46 36 37 43 43 55 60 63 45 23 14 9 11 12 10 19 20 23 26 37 40 46 52 55 55 58 65 66 59 57 58 56 56 57 59 65 60 49 54
33 33 33 33 33 45 35 35 43 42 50 59 61 61 42 31 18 12 9 5 6 9 11 22 30 43 48 51 54 52 53 59 59 55 53 56 58 53 56 60 65 57 54 53
34 34 30 30 33 33 41 31 38 44 43 48 55 55 63 45 35 17 8 6 7 9 19 22 32 40 40 48 52 44 47 52 51 48 49 54 54 52 54 58 56 57 52 49
40 32 30 29 27 28 31 27 34 38 40 41 45 54 53 55 50 35 35 33 17 4 1 14 35 22 39 41 38 30 37 43 44 43 45 46 49 48 51 54 55 57 52 48
22 27 28 28 25 30 28 27 28 27 30 33 38 42 43 54 52 47 41 36 28 24 23 15 12 17 24 43 31 24 43 42 36 36 37 39 40 45 47 50 54 52 52 49
29 25 22 19 19 19 20 19 21 24 25 28 31 36 39 42 50 50 52 47 26 25 18 7 2 6 16 43 20 20 37 45 42 42 37 31 41 40 42 47 49 54 54 49
65 61 51 45 31 26 38 39 24 21 19 22 28 30 30 29 31 38 38 30 32 27 16 15 8 20 27 21 6 16 18 31 45 40 37 45 36 34 38 42 49 55 57 53
55 56 55 55 59 52 47 45 43 39 37 34 32 30 28 24 21 25 33 35 28 20 23 19 5 14 26 17 4 13 8 9 17 43 47 46 37 32 36 40 47 53 58 51
45 46 50 55 49 49 51 48 48 48 47 45 43 41 34 30 25 23 22 24 28 26 23 15 12 12 9 22 16 9 12 10 10 14 20 23 23 34 38 39 44 61 56 53
35 42 40 41 40 47 48 47 48 49 50 47 43 45 38 36 37 29 30 28 28 32 27 20 20 13 7 12 18 26 21 16 17 18 12 17 27 21 27 34 42 49 56 56
Wind_Direction_500mb
241 231 206 203 215 218 222 229 227 243 146 252 123 120 152 155 166 173 181 180 179 182 182 186 190 193 196 199 198 202 210 212 218 222 224 226 232 234 227 220 215 224 224 233
240 246 246 216 203 222 218 225 236 216 248 202 97 117 157 159 172 177 185 185 184 186 188 189 191 194 198 198 202 201 215 219 220 225 225 229 230 232 221 212 214 232 232 235
237 232 241 237 210 208 222 220 225 230 216 262 154 161 152 176 179 187 188 189 191 192 193 195 196 199 200 203 204 209 214 221 222 225 226 231 231 227 207 207 262 248 234 236
230 232 232 221 229 216 219 229 230 233 228 232 248 176 169 177 187 192 196 198 200 200 201 203 200 202 201 206 210 213 217 223 225 226 229 231 232 232 218 220 225 227 221 230
232 228 229 228 231 228 212 219 231 224 241 229 216 232 183 205 184 190 199 205 207 209 211 207 207 207 210 206 215 217 224 226 228 228 230 232 235 232 223 227 225 221 222 229
242 239 221 221 219 227 239 243 217 229 230 245 230 224 217 210 201 206 213 208 211 211 213 213 215 211 214 213 213 225 226 230 230 230 235 238 237 230 224 226 227 218 220 221
227 249 254 204 213 211 225 223 278 237 241 251 258 249 242 218 224 225 226 223 217 214 214 216 225 220 216 222 219 226 229 231 233 232 234 234 230 218 224 225 218 215 214 215
224 217 231 14 342 2 360 2 0 3 240 243 240 254 254 248 240 243 218 224 220 217 218 219 217 223 223 224 227 223 222 224 227 227 223 216 223 224 224 220 219 213 208 209
208 214 89 63 32 16 2 352 347 332 333 336 298 246 235 247 239 248 246 232 230 229 232 225 222 222 226 231 224 221 221 221 222 224 225 221 222 220 218 218 215 208 205 205
225 223 249 19 25 355 340 339 330 318 310 310 301 290 284 268 240 243 245 241 240 237 229 236 238 233 233 224 216 218 219 217 219 224 221 210 219 222 215 213 205 204 202 201
231 38 331 60 0 342 333 330 325 317 307 298 292 289 284 278 279 272 241 242 243 239 234 241 247 244 234 222 215 217 215 211 211 206 203 211 218 220 203 213 210 203 203 202
48 25 348 340 335 335 330 328 330 314 305 297 285 276 274 269 267 267 253 244 242 240 237 242 245 244 236 223 215 207 201 201 201 191 195 207 200 201 195 210 205 198 208 196
8 343 329 327 325 329 321 339 335 319 304 292 282 273 270 270 267 259 262 241 236 240 236 236 229 235 231 212 213 205 197 195 190 185 189 192 189 189 190 193 204 202 200 188
345 346 346 346 344 333 338 346 350 353 333 329 318 285 272 269 266 249 244 248 246 233 228 224 219 214 210 201 201 197 193 193 189 187 187 181 188 188 188 196 196 198 194 193
345 338 316 334 350 348 358 354 356 0 358 343 323 309 304 280 264 253 246 250 240 234 228 219 214 209 200 196 195 188 189 191 187 185 185 182 183 183 185 186 187 193 194 196
316 324 345 335 335 342 5 5 7 359 354 354 347 322 308 302 278 253 240 244 232 228 222 215 213 207 203 196 192 187 188 191 184 182 186 178 182 183 184 183 181 186 194 200
321 328 330 334 329 330 3 12 11 4 357 357 355 338 327 322 282 272 269 253 228 221 219 214 209 205 199 195 191 187 187 187 180 182 180 180 181 183 185 184 184 192 193 200
306 299 307 319 322 331 352 6 4 7 3 0 9 7 3 351 315 285 269 248 218 223 220 214 207 201 191 193 189 190 190 185 183 186 179 178 183 184 183 183 186 187 188 201
296 299 304 308 323 334 352 5 5 8 7 6 9 19 18 23 20 6 340 290 252 211 196 209 202 180 190 189 183 190 191 188 184 186 181 181 181 183 182 183 186 188 185 198
286 292 291 302 312 328 334 356 359 5 8 11 12 11 19 24 29 38 82 72 65 119 214 209 187 176 188 188 180 191 191 188 188 187 183 183 179 183 183 186 185 183 186 195
269 276 278 293 299 303 317 340 351 1 7 15 20 16 14 19 33 39 59 42 41 84 228 178 166 193 189 184 177 189 194 191 192 192 191 184 183 185 185 189 189 186 190 193
292 279 299 295 300 304 307 321 329 342 357 11 14 16 12 16 16 24 35 37 43 80 81 122 146 184 178 178 186 189 184 185 192 193 193 184 197 193 192 193 192 190 192 194
39 42 17 357 6 2 348 332 350 351 351 4 9 13 17 3 2 14 13 21 32 38 50 63 51 227 198 168 175 203 208 194 191 183 192 188 210 199 198 198 196 193 192 194
50 52 52 48 52 38 31 28 11 0 10 16 11 8 13 11 6 7 6 11 18 11 352 19 50 110 115 155 213 247 253 210 198 194 181 209 209 205 204 202 199 195 193 198
43 37 36 44 45 41 39 36 30 30 30 28 25 17 8 13 18 8 359 355 0 17 15 350 338 149 130 116 297 337 328 329 249 211 212 209 193 206 209 206 204 202 195 203
37 37 32 30 29 31 29 27 32 30 31 27 28 24 22 16 12 23 21 357 355 3 360 353 356 313 207 157 159 184 195 157 270 261 247 256 250 226 217 220 212 206 201 206
22 25 23 22 21 23 22 21 24 28 28 26 26 25 28 20 21 27 31 16 13 0 341 338 325 324 339 286 243 209 199 180 183 190 231 258 259 245 245 235 215 214 210 209
Wind_Speed_850mb
56 50 49 53 60 56 60 51 50 40 48 62 27 24 32 45 49 54 55 61 62 63 64 65 66 65 66 64 62 61 65 63 63 62 55 53 50 46 41 35 32 37 35 28
49 52 47 51 60 63 57 59 54 47 45 46 25 30 33 42 49 54 57 60 61 62 64 68 71 73 72 74 72 70 71 70 66 64 60 58 52 49 42 35 30 39 43 30
44 48 53 43 57 61 57 56 54 51 34 50 54 28 37 34 45 52 57 59 63 69 72 75 77 80 77 77 74 74 75 73 72 69 66 60 56 52 41 51 22 66 50 35
32 40 57 25 37 42 54 53 54 47 45 41 25 32 28 39 45 48 52 57 60 63 68 76 69 69 70 69 76 77 78 78 78 73 68 64 59 56 53 57 59 57 53 39
25 37 29 41 40 38 47 53 52 50 51 36 53 28 32 34 36 49 52 53 58 60 65 62 69 73 77 76 77 82 84 87 87 78 76 68 65 61 61 63 66 60 52 43
19 34 56 36 43 33 33 35 43 51 47 48 43 32 25 43 30 29 27 44 54 57 56 59 72 74 79 86 84 87 90 96 87 82 77 74 70 66 69 66 57 55 55 53
24 19 25 34 37 51 37 18 22 39 34 41 32 32 42 34 30 40 39 37 40 49 55 70 74 80 87 91 96 94 91 91 85 85 83 78 72 64 70 64 54 56 56 53
28 24 30 23 11 3 15 20 25 25 12 44 45 50 45 43 46 30 40 35 36 45 55 64 68 80 91 101 102 94 89 86 88 86 81 62 68 74 70 65 66 60 59 59
29 27 16 29 27 31 29 28 26 27 23 24 21 46 59 59 49 51 38 33 36 41 49 54 68 84 91 103 99 92 92 88 87 85 76 65 74 78 71 72 64 62 64 61
19 38 25 19 24 32 36 34 32 32 36 29 27 28 33 35 58 59 56 53 47 46 48 56 56 62 70 78 83 90 92 89 84 78 68 74 81 74 65 73 61 61 62 61
20 30 22 20 26 37 40 38 41 41 37 34 36 40 40 43 47 49 54 57 55 53 65 68 65 62 62 78 83 96 91 84 78 61 64 80 80 72 60 62 64 63 60 58
10 24 21 25 33 36 40 41 42 48 48 40 39 45 43 46 46 49 56 54 54 55 59 68 68 67 66 70 86 87 84 80 71 65 75 78 64 65 64 49 56 54 55 48
24 26 26 23 28 28 34 37 45 40 41 46 45 46 47 48 44 45 39 30 42 55 60 56 60 63 63 72 81 81 79 72 69 66 65 75 66 59 77 64 59 68 60 54
16 26 21 26 32 29 29 34 41 42 39 40 37 33 40 44 42 43 42 40 37 42 45 43 47 49 53 63 69 72 68 71 74 69 68 72 66 61 57 73 71 73 67 65
16 25 28 23 25 31 33 39 47 56 55 43 35 32 30 32 34 35 30 29 29 31 36 41 46 47 53 56 63 65 65 66 66 61 60 66 59 57 54 55 56 71 76 68
32 25 25 28 44 46 32 36 38 49 61 63 44 33 29 25 22 21 20 20 24 29 32 39 42 45 49 53 59 62 66 67 67 65 60 59 56 56 56 58 59 60 61 70
32 22 30 32 42 53 33 38 40 42 58 66 54 35 24 17 13 12 14 13 16 23 30 34 39 42 44 52 58 60 65 74 71 70 61 59 56 58 58 60 63 67 54 58
29 31 30 31 39 46 36 37 43 43 55 60 63 45 23 14 9 11 12 10 19 20 23 26 37 40 46 52 55 55 58 65 66 59 57 58 56 56 57 59 65 60 49 54
33 33 33 33 33 45 35 35 43 42 50 59 61 61 42 31 18 12 9 5 6 9 11 22 30 43 48 51 54 52 53 59 59 55 53 56 58 53 56 60 65 57 54 53
34 34 30 30 33 33 41 31 38 44 43 48 55 55 63 45 35 17 8 6 7 9 19 22 32 40 40 48 52 44 47 52 51 48 49 54 54 52 54 58 56 57 52 49
40 32 30 29 27 28 31 27 34 38 40 41 45 54 53 55 50 35 35 33 17 4 1 14 35 22 39 41 38 30 37 43 44 43 45 46 49 48 51 54 55 57 52 48
22 27 28 28 25 30 28 27 28 27 30 33 38 42 43 54 52 47 41 36 28 24 23 15 12 17 24 43 31 24 43 42 36 36 37 39 40 45 47 50 54 52 52 49
29 25 22 19 19 19 20 19 21 24 25 28 31 36 39 42 50 50 52 47 26 25 18 7 2 6 16 43 20 20 37 45 42 42 37 31 41 40 42 47 49 54 54 49
65 61 51 45 31 26 38 39 24 21 19 22 28 30 30 29 31 38 38 30 32 27 16 15 8 20 27 21 6 16 18 31 45 40 37 45 36 34 38 42 49 55 57 53
55 56 55 55 59 52 47 45 43 39 37 34 32 30 28 24 21 25 33 35 28 20 23 19 5 14 26 17 4 13 8 9 17 43 47 46 37 32 36 40 47 53 58 51
45 46 50 55 49 49 51 48 48 48 47 45 43 41 34 30 25 23 22 24 28 26 23 15 12 12 9 22 16 9 12 10 10 14 20 23 23 34 38 39 44 61 56 53
35 42 40 41 40 47 48 47 48 49 50 47 43 45 38 36 37 29 30 28 28 32 27 20 20 13 7 12 18 26 21 16 17 18 12 17 27 21 27 34 42 49 56 56
Wind_Direction_850mb
241 231 206 203 215 218 222 229 227 243 146 252 123 120 152 155 166 173 181 180 179 182 182 186 190 193 196 199 198 202 210 212 218 222 224 226 232 234 227 220 215 224 224 233
240 246 246 216 203 222 218 225 236 216 248 202 97 117 157 159 172 177 185 185 184 186 188 189 191 194 198 198 202 201 215 219 220 225 225 229 230 232 221 212 214 232 232 235
237 232 241 237 210 208 222 220 225 230 216 262 154 161 152 176 179 187 188 189 191 192 193 195 196 199 200 203 204 209 214 221 222 225 226 231 231 227 207 207 262 248 234 236
230 232 232 221 229 216 219 229 230 233 228 232 248 176 169 177 187 192 196 198 200 200 201 203 200 202 201 206 210 213 217 223 225 226 229 231 232 232 218 220 225 227 221 230
232 228 229 228 231 228 212 219 231 224 241 229 216 232 183 205 184 190 199 205 207 209 211 207 207 207 210 206 215 217 224 226 228 228 230 232 235 232 223 227 225 221 222 229
242 239 221 221 219 227 239 243 217 229 230 245 230 224 217 210 201 206 213 208 211 211 213 213 215 211 214 213 213 225 226 230 230 230 235 238 237 230 224 226 227 218 220 221
227 249 254 204 213 211 225 223 278 237 241 251 258 249 242 218 224 225 226 223 217 214 214 216 225 220 216 222 219 226 229 231 233 232 234 234 230 218 224 225 218 215 214 215
224 217 231 14 342 2 360 2 0 3 240 243 240 254 254 248 240 243 218 224 220 217 218 219 217 223 223 224 227 223 222 224 227 227 223 216 223 224 224 220 219 213 208 209
208 214 89 63 32 16 2 352 347 332 333 336 298 246 235 247 239 248 246 232 230 229 232 225 222 222 226 231 224 221 221 221 222 224 225 221 222 220 218 218 215 208 205 205
225 223 249 19 25 355 340 339 330 318 310 310 301 290 284 268 240 243 245 241 240 237 229 236 238 233 233 224 216 218 219 217 219 224 221 210 219 222 215 213 205 204 202 201
231 38 331 60 0 342 333 330 325 317 307 298 292 289 284 278 279 272 241 242 243 239 234 241 247 244 234 222 215 217 215 211 211 206 203 211 218 220 203 213 210 203 203 202
48 25 348 340 335 335 330 328 330 314 305 297 285 276 274 269 267 267 253 244 242 240 237 242 245 244 236 223 215 207 201 201 201 191 195 207 200 201 195 210 205 198 208 196
8 343 329 327 325 329 321 339 335 319 304 292 282 273 270 270 267 259 262 241 236 240 236 236 229 235 231 212 213 205 197 195 190 185 189 192 189 189 190 193 204 202 200 188
345 346 346 346 344 333 338 346 350 353 333 329 318 285 272 269 266 249 244 248 246 233 228 224 219 214 210 201 201 197 193 193 189 187 187 181 188 188 188 196 196 198 194 193
345 338 316 334 350 348 358 354 356 0 358 343 323 309 304 280 264 253 246 250 240 234 228 219 214 209 200 196 195 188 189 191 187 185 185 182 183 183 185 186 187 193 194 196
316 324 345 335 335 342 5 5 7 359 354 354 347 322 308 302 278 253 240 244 232 228 222 215 213 207 203 196 192 187 188 191 184 182 186 178 182 183 184 183 181 186 194 200
321 328 330 334 329 330 3 12 11 4 357 357 355 338 327 322 282 272 269 253 228 221 219 214 209 205 199 195 191 187 187 187 180 182 180 180 181 183 185 184 184 192 193 200
306 299 307 319 322 331 352 6 4 7 3 0 9 7 3 351 315 285 269 248 218 223 220 214 207 201 191 193 189 190 190 185 183 186 179 178 183 184 183 183 186 187 188 201
296 299 304 308 323 334 352 5 5 8 7 6 9 19 18 23 20 6 340 290 252 211 196 209 202 180 190 189 183 190 191 188 184 186 181 181 181 183 182 183 186 188 185 198
286 292 291 302 312 328 334 356 359 5 8 11 12 11 19 24 29 38 82 72 65 119 214 209 187 176 188 188 180 191 191 188 188 187 183 183 179 183 183 186 185 183 186 195
269 276 278 293 299 303 317 340 351 1 7 15 20 16 14 19 33 39 59 42 41 84 228 178 166 193 189 184 177 189 194 191 192 192 191 184 183 185 185 189 189 186 190 193
292 279 299 295 300 304 307 321 329 342 357 11 14 16 12 16 16 24 35 37 43 80 81 122 146 184 178 178 186 189 184 185 192 193 193 184 197 193 192 193 192 190 192 194
39 42 17 357 6 2 348 332 350 351 351 4 9 13 17 3 2 14 13 21 32 38 50 63 51 227 198 168 175 203 208 194 191 183 192 188 210 199 198 198 196 193 192 194
50 52 52 48 52 38 31 28 11 0 10 16 11 8 13 11 6 7 6 11 18 11 352 19 50 110 115 155 213 247 253 210 198 194 181 209 209 205 204 202 199 195 193 198
43 37 36 44 45 41 39 36 30 30 30 28 25 17 8 13 18 8 359 355 0 17 15 350 338 149 130 116 297 337 328 329 249 211 212 209 193 206 209 206 204 202 195 203
37 37 32 30 29 31 29 27 32 30 31 27 28 24 22 16 12 23 21 357 355 3 360 353 356 313 207 157 159 184 195 157 270 261 247 256 250 226 217 220 212 206 201 206
22 25 23 22 21 23 22 21 24 28 28 26 26 25 28 20 21 27 31 16 13 0 341 338 325 324 339 286 243 209 199 180 183 190 231 258 259 245 245 235 215 214 210 209